Manistique, MI

11:18 PM EST on January 19, 2018 (GMT -0500)
Schoolcraft County

Weather History for KISQ - March, 2013

Change the Weather History Date:

Sunday, March 31, 2013

  Actual Average Record
Temperature  
Mean Temperature 33 °F -  
Max Temperature 42 °F 40 °F 60 °F (1963)
Min Temperature 24 °F 23 °F -10 °F (1975)
Degree Days  
Heating Degree Days 32    
Moisture  
Dew Point 28 °F    
Average Humidity 81    
Maximum Humidity 93    
Minimum Humidity 45    
Precipitation  
Precipitation 0.00 in - - ()
Sea Level Pressure  
Sea Level Pressure 29.63 in    
Wind  
Wind Speed 7 mph (West)    
Max Wind Speed 24 mph    
Max Gust Speed 38 mph    
Visibility 5 miles    
Events Fog , Rain , Snow    
Averages and records for this station are not official NWS values.
T = Trace of Precipitation, MM = Missing Value Source: NWS Daily Summary

Daily Weather History Graph

Daily Weather History Graph

Search for Another Location

Airport or City:

Trip Planner

Search our weather history database for the weather conditions in past years. The results will help you decide how hot, cold, wet, or windy it might be!

Date:

Astronomy

Mar. 31, 2013 Rise Set
Actual Time 7:26 AM EDT 8:12 PM EDT
Civil Twilight 6:55 AM EDT 8:42 PM EDT
Nautical Twilight 6:20 AM EDT 9:18 PM EDT
Astronomical Twilight 5:42 AM EDT 9:56 PM EDT
Moon 12:30 AM EDT (3/31) 9:59 AM EDT (3/31)
Length of Visible Light 13h 46m
Length of Day
12h 46m
Waning Gibbous, 78% of the Moon is Illuminated
Mar 31
Waning Gibbous
Apr 3
Last Quarter
Apr 10
New
Apr 18
First Quarter
Apr 25
Full

Hourly Weather History & Observations

Time (EDT) Temp. Windchill Dew Point Humidity Pressure Visibility Wind Dir Wind Speed Gust Speed Precip Events Conditions
12:14 AM 35.6 °F 31.7 °F 33.8 °F 93% 29.74 in 1.8 mi SSW 4.6 mph - N/A   Overcast
12:34 AM 35.6 °F 32.8 °F 33.8 °F 93% 29.74 in 1.5 mi SSW 3.5 mph - N/A   Overcast
12:55 AM 35.6 °F 32.8 °F 33.8 °F 93% 29.73 in 1.8 mi SW 3.5 mph - N/A   Overcast
1:14 AM 35.6 °F - 33.8 °F 93% 29.72 in 1.8 mi Calm Calm - N/A   Overcast
1:35 AM 35.6 °F - 33.8 °F 93% 29.72 in 2.5 mi Calm Calm - N/A   Overcast
1:54 AM 35.6 °F 32.8 °F 33.8 °F 93% 29.72 in 2.5 mi West 3.5 mph - N/A   Overcast
2:15 AM 35.6 °F - 33.8 °F 93% 29.71 in 2.0 mi Calm Calm - N/A   Overcast
2:34 AM 35.6 °F - 33.8 °F 93% 29.70 in 1.8 mi Calm Calm - N/A   Overcast
2:55 AM 33.8 °F 29.6 °F 32.0 °F 93% 29.69 in 0.8 mi West 4.6 mph - N/A   Overcast
3:15 AM 33.8 °F 28.6 °F 32.0 °F 93% 29.68 in 0.2 mi WNW 5.8 mph - N/A Fog Fog
3:34 AM 33.8 °F 27.7 °F 30.2 °F 87% 29.68 in 0.2 mi West 6.9 mph - N/A Fog Fog
3:55 AM 33.8 °F 29.6 °F 30.2 °F 87% 29.67 in 0.2 mi West 4.6 mph - N/A Fog Fog
4:14 AM 33.8 °F 30.8 °F 30.2 °F 87% 29.66 in 0.2 mi West 3.5 mph - N/A Fog Fog
4:34 AM 33.8 °F - 30.2 °F 87% 29.65 in 0.2 mi Calm Calm - N/A Fog Fog
4:55 AM 32.0 °F - 30.2 °F 93% 29.65 in 0.2 mi Calm Calm - N/A Fog Fog
5:14 AM 32.0 °F 28.7 °F 30.2 °F 93% 29.65 in 0.2 mi West 3.5 mph - N/A Fog Fog
5:35 AM 32.0 °F 28.7 °F 30.2 °F 93% 29.64 in 0.2 mi WSW 3.5 mph - N/A Fog Fog
5:55 AM 32.0 °F 28.7 °F 30.2 °F 93% 29.63 in 0.2 mi West 3.5 mph - N/A Fog Fog
6:14 AM 32.0 °F 27.5 °F 30.2 °F 93% 29.63 in 0.2 mi West 4.6 mph - N/A Fog Fog
6:35 AM 32.0 °F 27.5 °F 30.2 °F 93% 29.62 in 0.2 mi WSW 4.6 mph - N/A Fog Fog
6:54 AM 32.0 °F - 30.2 °F 93% 29.62 in 0.2 mi Calm Calm - N/A Fog Fog
7:15 AM 32.0 °F 28.7 °F 30.2 °F 93% 29.62 in 0.2 mi WSW 3.5 mph - N/A Fog Fog
7:34 AM 33.8 °F 28.6 °F 30.2 °F 87% 29.62 in 0.2 mi West 5.8 mph - N/A Fog Fog
7:55 AM 33.8 °F 30.8 °F 30.2 °F 87% 29.61 in 0.2 mi WSW 3.5 mph - N/A Fog Fog
8:15 AM 33.8 °F 29.6 °F 30.2 °F 87% 29.61 in 0.5 mi SW 4.6 mph - N/A Fog Fog
8:34 AM 33.8 °F - 30.2 °F 87% 29.60 in 0.8 mi Calm Calm - N/A   Overcast
8:55 AM 33.8 °F 29.6 °F 32.0 °F 93% 29.60 in 1.5 mi SW 4.6 mph - N/A   Overcast
9:14 AM 33.8 °F 29.6 °F 32.0 °F 93% 29.59 in 1.5 mi WSW 4.6 mph - N/A   Overcast
9:34 AM 33.8 °F 30.8 °F 32.0 °F 93% 29.59 in 1.8 mi SW 3.5 mph - N/A   Overcast
9:55 AM 35.6 °F 31.7 °F 33.8 °F 93% 29.58 in 2.5 mi SW 4.6 mph - N/A   Overcast
10:14 AM 35.6 °F 31.7 °F 33.8 °F 93% 29.58 in 3.0 mi WSW 4.6 mph - N/A   Overcast
10:35 AM 35.6 °F 30.7 °F 33.8 °F 93% 29.57 in 4.0 mi SW 5.8 mph - N/A   Overcast
10:55 AM 35.6 °F 30.7 °F 33.8 °F 93% 29.57 in 5.0 mi SW 5.8 mph - N/A   Overcast
11:14 AM 37.4 °F 34.9 °F 33.8 °F 87% 29.56 in 5.0 mi SW 3.5 mph - N/A   Overcast
11:35 AM 37.4 °F 33.8 °F 35.6 °F 93% 29.56 in 10.0 mi SW 4.6 mph - N/A   Overcast
11:54 AM 37.4 °F 32.8 °F 33.8 °F 87% 29.55 in 7.0 mi SW 5.8 mph - N/A   Overcast
12:15 PM 35.6 °F 29.2 °F 33.8 °F 93% 29.56 in 7.0 mi SSW 8.1 mph - N/A   Overcast
12:35 PM 35.6 °F 29.2 °F 33.8 °F 93% 29.55 in 5.0 mi SSW 8.1 mph - N/A   Overcast
12:54 PM 37.4 °F 31.4 °F 33.8 °F 87% 29.55 in 7.0 mi South 8.1 mph - N/A   Overcast
1:15 PM 37.4 °F 32.8 °F 33.8 °F 87% 29.54 in 10.0 mi South 5.8 mph - N/A   Scattered Clouds
1:34 PM 37.4 °F 30.8 °F 33.8 °F 87% 29.53 in 7.0 mi South 9.2 mph - N/A   Clear
1:54 PM 37.4 °F 32.1 °F 33.8 °F 87% 29.53 in 10.0 mi South 6.9 mph - N/A   Mostly Cloudy
2:15 PM 37.4 °F 30.3 °F 33.8 °F 87% 29.54 in 10.0 mi SSW 10.4 mph - N/A Rain Light Rain
2:34 PM 41.0 °F 35.8 °F 30.2 °F 65% 29.53 in 10.0 mi West 8.1 mph 18.4 mph N/A   Light Drizzle
2:55 PM 42.8 °F 35.4 °F 28.4 °F 57% 29.53 in 10.0 mi West 15.0 mph 19.6 mph N/A   Overcast
3:15 PM 42.8 °F 36.6 °F 28.4 °F 57% 29.54 in 10.0 mi West 11.5 mph 19.6 mph N/A   Overcast
3:34 PM 41.0 °F 31.4 °F 28.4 °F 61% 29.55 in 10.0 mi WNW 21.9 mph 28.8 mph N/A   Overcast
3:55 PM 39.2 °F 33.0 °F 28.4 °F 65% 29.55 in 10.0 mi West 9.2 mph - N/A   Overcast
4:14 PM 39.2 °F 32.0 °F 24.8 °F 56% 29.55 in 10.0 mi West 11.5 mph - N/A   Overcast
4:35 PM 39.2 °F 29.6 °F 24.8 °F 56% 29.56 in 10.0 mi WNW 19.6 mph 27.6 mph N/A   Overcast
4:55 PM 39.2 °F 30.5 °F 21.2 °F 49% 29.57 in 10.0 mi WNW 16.1 mph 27.6 mph N/A   Overcast
5:14 PM 39.2 °F 29.6 °F 19.4 °F 45% 29.57 in 10.0 mi WNW 19.6 mph 28.8 mph N/A   Mostly Cloudy
5:35 PM 39.2 °F 30.2 °F 19.4 °F 45% 29.58 in 10.0 mi WNW 17.3 mph - N/A   Scattered Clouds
5:54 PM 37.4 °F 26.1 °F 19.4 °F 48% 29.59 in 10.0 mi NW 24.2 mph 33.4 mph N/A   Scattered Clouds
6:14 PM 37.4 °F 26.4 °F 23.0 °F 56% 29.61 in 10.0 mi NW 23.0 mph 36.8 mph N/A   Scattered Clouds
6:35 PM 30.2 °F 18.1 °F 24.8 °F 80% 29.63 in 4.0 mi NNW 18.4 mph 38.0 mph N/A Snow Light Snow
6:54 PM 30.2 °F 18.5 °F 23.0 °F 75% 29.64 in 10.0 mi NW 17.3 mph 31.1 mph N/A   Overcast
7:15 PM 30.2 °F 16.5 °F 21.2 °F 69% 29.65 in 10.0 mi NW 24.2 mph 35.7 mph N/A   Mostly Cloudy
7:34 PM 30.2 °F 16.5 °F 19.4 °F 64% 29.67 in 10.0 mi NW 24.2 mph 32.2 mph N/A   Mostly Cloudy
7:55 PM 28.4 °F 14.7 °F 19.4 °F 69% 29.68 in 10.0 mi NW 21.9 mph 35.7 mph N/A   Overcast
8:15 PM 28.4 °F 14.4 °F 17.6 °F 64% 29.69 in 10.0 mi NW 23.0 mph 34.5 mph N/A Snow Light Snow
8:34 PM 28.4 °F 17.0 °F 17.6 °F 64% 29.70 in 10.0 mi NW 15.0 mph 29.9 mph N/A   Scattered Clouds
8:55 PM 26.6 °F 11.7 °F 17.6 °F 69% 29.71 in 10.0 mi NW 24.2 mph 32.2 mph N/A   Mostly Cloudy
9:14 PM 26.6 °F 14.3 °F 19.4 °F 74% 29.72 in 10.0 mi NW 16.1 mph 28.8 mph N/A Snow Snow
9:35 PM 26.6 °F 13.8 °F 19.4 °F 74% 29.73 in 10.0 mi NW 17.3 mph 24.2 mph N/A Snow Light Snow
9:55 PM 26.6 °F 12.4 °F 19.4 °F 74% 29.74 in 5.0 mi NW 21.9 mph 36.8 mph N/A Snow Light Snow
10:14 PM 26.6 °F 14.7 °F 21.2 °F 80% 29.75 in 3.0 mi NW 15.0 mph 23.0 mph N/A Snow Light Snow
10:35 PM 26.6 °F 15.2 °F 19.4 °F 74% 29.75 in 10.0 mi NW 13.8 mph 27.6 mph N/A Snow Light Snow
10:54 PM 26.6 °F 15.2 °F 19.4 °F 74% 29.75 in 10.0 mi NW 13.8 mph 25.3 mph N/A Snow Light Snow
11:14 PM 24.8 °F 12.4 °F 19.4 °F 80% 29.75 in 4.0 mi NW 15.0 mph 25.3 mph N/A Snow Light Snow
11:35 PM 24.8 °F 12.9 °F 19.4 °F 80% 29.76 in 10.0 mi NW 13.8 mph 25.3 mph N/A Snow Light Snow
11:54 PM 24.8 °F 11.1 °F 17.6 °F 74% 29.76 in 10.0 mi WNW 18.4 mph 25.3 mph N/A   Mostly Cloudy